GW5117 Weather Reports


time (UTC)temp
C
wind
direction
speed
KPH
gust
KPH
rain 1hr
cm
rain 24hr
cm
rain mn
cm
humidity
%
barometer
mb
20260507094150 7 124 0.0 0.0 0.00 0.00 0.00 99 1015.7
20260507093647 7 124 0.0 0.0 0.00 0.00 0.00 99 1015.9
20260507093146 7 124 0.0 0.0 0.00 0.00 0.00 99 1015.8
20260507092642 7 109 0.0 0.0 0.00 0.00 0.00 99 1015.5
20260507092139 7 99 0.0 0.0 0.00 0.00 0.00 99 1015.6
20260507091635 7 98 0.0 0.0 0.00 0.00 0.00 99 1015.6
20260507091132 8 90 0.0 0.0 0.00 0.00 0.00 99 1015.5
20260507090627 7 89 0.0 0.0 0.00 0.00 0.00 99 1015.5
20260507090125 8 89 0.0 0.0 0.00 0.00 0.00 99 1015.4
20260507085622 8 89 0.0 0.0 0.00 0.00 0.00 99 1015.8
20260507085118 8 89 0.0 0.0 0.00 0.00 0.00 99 1015.3
20260507084615 8 89 0.0 0.0 0.00 0.00 0.00 99 1015.6
20260507084112 8 89 0.0 0.0 0.00 0.00 0.00 99 1015.7
20260507083609 8 89 0.0 0.0 0.00 0.00 0.00 99 1015.2
20260507083106 8 89 0.0 0.0 0.00 0.00 0.00 99 1015.3
20260507082601 8 89 0.0 0.0 0.00 0.00 0.00 99 1015.2
20260507082058 8 89 0.0 0.0 0.00 0.00 0.00 99 1015.4
20260507081554 8 89 0.0 0.0 0.00 0.00 0.00 99 1015.6
20260507081051 8 89 0.0 0.0 0.00 0.00 0.00 99 1015.5
20260507080547 8 89 0.0 0.0 0.00 0.00 0.00 99 1015.7
20260507080044 8 89 0.0 0.0 0.00 0.00 0.00 99 1015.7
20260507075539 9 89 0.0 0.0 0.00 0.00 0.00 99 1015.5
20260507075036 9 89 0.0 0.0 0.00 0.00 0.00 99 1015.7
20260507074532 9 89 0.0 0.0 0.00 0.00 0.00 99 1015.6
20260507074031 9 89 0.0 0.0 0.00 0.00 0.00 99 1015.5
20260507073527 9 89 0.0 0.0 0.00 0.00 0.00 99 1015.5
20260507073023 9 90 0.0 0.0 0.00 0.00 0.00 99 1015.6
20260507072521 9 90 0.0 0.0 0.00 0.00 0.00 99 1015.5
20260507072018 9 90 0.0 0.0 0.00 0.00 0.00 99 1015.6
20260507071515 9 90 0.0 0.0 0.00 0.00 0.00 99 1015.8
20260507071012 9 90 0.0 0.0 0.00 0.00 0.00 99 1016.0
20260507070509 9 88 0.0 0.0 0.00 0.00 0.00 99 1015.9
20260507070010 9 73 0.0 0.0 0.00 0.00 0.00 99 1015.6
20260507065502 9 73 0.0 0.0 0.00 0.00 0.00 99 1015.5
20260507064959 9 71 0.0 0.0 0.00 0.00 0.00 99 1015.5
20260507064458 9 71 0.0 0.0 0.00 0.00 0.00 99 1015.6
20260507063955 9 71 0.0 0.0 0.00 0.00 0.00 99 1015.6
20260507063452 9 71 0.0 0.0 0.00 0.00 0.00 99 1015.7
20260507062949 9 71 0.0 0.0 0.00 0.00 0.00 99 1015.7
20260507062446 9 71 0.0 0.0 0.00 0.00 0.00 99 1015.7
20260507061943 9 71 0.0 0.0 0.00 0.00 0.00 99 1015.7
20260507061442 9 71 0.0 0.0 0.00 0.00 0.00 99 1015.9
20260507060940 9 71 0.0 0.0 0.00 0.00 0.00 99 1015.7
20260507060436 9 71 0.0 0.0 0.00 0.00 0.00 99 1015.8
20260507055933 9 71 0.0 0.0 0.00 0.00 0.00 99 1015.7
20260507055428 9 71 0.0 0.0 0.00 0.00 0.00 99 1015.9
20260507054925 9 71 0.0 0.0 0.00 0.00 0.00 99 1015.7
20260507054421 9 71 0.0 0.0 0.00 0.00 0.00 99 1015.9
20260507053919 9 71 0.0 0.0 0.00 0.00 0.00 99 1015.9
20260507053416 9 71 0.0 0.0 0.00 0.00 0.00 99 1016.0
20260507052915 9 71 0.0 0.0 0.00 0.00 0.00 99 1015.9
20260507052412 9 71 0.0 0.0 0.00 0.00 0.00 99 1015.9
20260507051909 9 71 0.0 0.0 0.00 0.00 0.00 99 1016.2
20260507051407 9 71 0.0 0.0 0.00 0.00 0.00 99 1016.2
20260507050903 9 71 0.0 0.0 0.00 0.00 0.00 99 1016.1
20260507050359 9 71 0.0 0.0 0.00 0.00 0.00 99 1016.0
20260507045856 9 71 0.0 0.0 0.00 0.00 0.00 99 1016.1
20260507045353 9 71 0.0 0.0 0.00 0.00 0.00 99 1016.1
20260507044850 9 71 0.0 0.0 0.00 0.00 0.00 99 1016.4
20260507044347 9 71 0.0 0.0 0.00 0.00 0.00 99 1016.1
20260507043842 9 71 0.0 0.0 0.00 0.00 0.00 99 1016.1
20260507043339 9 71 0.0 0.0 0.00 0.00 0.00 99 1016.1
20260507042836 9 71 0.0 0.0 0.00 0.00 0.00 99 1016.1
20260507042331 9 57 0.0 0.0 0.00 0.00 0.00 99 1016.2
20260507041829 9 57 0.0 0.0 0.00 0.00 0.00 98 1016.1
20260507041325 10 57 0.0 0.0 0.00 0.00 0.00 98 1016.2
20260507040822 10 50 1.6 3.2 0.00 0.00 0.00 97 1016.2
20260507040318 10 49 4.8 4.8 0.18 0.00 0.00 97 1016.1
20260507035814 10 42 0.0 4.8 0.18 2.26 2.26 97 1016.3
20260507035310 10 341 0.0 4.8 0.00 2.24 2.24 98 1015.8
20260507034808 10 333 4.8 4.8 0.18 2.24 2.24 99 1015.9
20260507034304 11 16 0.0 6.4 0.18 2.24 2.24 99 1015.8
20260507033803 11 263 0.0 9.7 0.00 2.21 2.21 99 1015.5
20260507033300 11 32 0.0 4.8 0.13 2.21 2.21 99 1015.9
20260507032757 12 71 3.2 3.2 0.13 2.21 2.21 99 1015.7
20260507032253 12 202 0.0 0.0 0.00 2.18 2.18 99 1015.5
20260507031749 12 199 0.0 0.0 0.00 2.18 2.18 99 1015.5
20260507031247 12 351 0.0 0.0 0.00 2.18 2.18 99 1015.4
20260507030743 12 351 0.0 0.0 0.18 2.18 2.18 99 1015.4
20260507030240 12 353 0.0 0.0 0.30 2.18 2.18 99 1015.6
20260507025738 12 353 0.0 1.6 0.13 2.16 2.16 99 1015.5
20260507025235 12 94 0.0 0.0 0.00 2.13 2.13 99 1015.5
20260507024733 12 181 0.0 0.0 0.18 2.13 2.13 99 1015.6
20260507024230 12 184 0.0 0.0 0.30 2.13 2.13 99 1015.7
20260507023725 12 147 0.0 0.0 0.13 2.11 2.11 99 1015.5
20260507023222 12 139 0.0 0.0 0.18 2.08 2.08 99 1015.6
20260507022720 12 138 0.0 0.0 0.48 2.08 2.08 99 1015.9
20260507022215 12 155 0.0 0.0 0.43 2.06 2.06 99 1015.7
20260507021712 12 161 0.0 0.0 0.18 1.98 1.98 99 1015.4
20260507021207 12 211 0.0 3.2 0.00 1.96 1.96 99 1015.2
20260507020706 12 194 3.2 3.2 0.00 1.96 1.96 99 1015.0
20260507020202 12 100 0.0 0.0 0.00 1.96 1.96 99 1015.2
20260507015700 12 100 0.0 0.0 0.00 1.96 1.96 99 1015.1
20260507015157 12 99 0.0 0.0 0.00 1.96 1.96 99 1015.1
20260507014653 12 99 0.0 0.0 0.00 1.96 1.96 99 1015.0
20260507014150 12 100 0.0 0.0 0.00 1.96 1.96 99 1014.7
20260507013647 12 100 0.0 0.0 0.00 1.96 1.96 99 1014.8
20260507013144 12 100 0.0 0.0 0.00 1.96 1.96 99 1014.8
20260507012641 12 100 0.0 0.0 0.00 1.96 1.96 99 1014.8
20260507012136 12 100 0.0 0.0 0.00 1.96 1.96 99 1014.8
20260507011635 12 100 0.0 0.0 0.00 1.96 1.96 99 1014.8
20260507011131 12 150 0.0 0.0 0.00 1.96 1.96 99 1014.5
20260507010626 12 153 0.0 0.0 0.00 1.96 1.96 99 1014.6
20260507010122 12 156 0.0 0.0 0.00 1.96 1.96 99 1014.3
20260507005619 12 156 0.0 0.0 0.00 1.96 1.96 99 1014.5
20260507005115 12 156 0.0 0.0 0.00 1.96 1.96 99 1014.6
20260507004612 12 141 0.0 0.0 0.00 1.96 1.96 99 1014.5
20260507004110 12 140 0.0 0.0 0.00 1.96 1.96 99 1014.5
20260507003606 12 140 0.0 0.0 0.00 1.96 1.96 98 1014.6
20260507003101 12 150 0.0 0.0 0.00 1.96 1.96 98 1014.2
20260507002558 12 169 0.0 0.0 0.00 1.96 1.96 98 1013.9
20260507002053 12 173 0.0 0.0 0.00 1.96 1.96 98 1014.3
20260507001550 12 179 0.0 0.0 0.00 1.96 1.96 98 1014.3
20260507001048 12 179 0.0 0.0 0.00 1.96 1.96 98 1014.2
20260507000544 12 186 0.0 0.0 0.00 1.96 1.96 98 1014.7
20260507000039 12 192 0.0 0.0 0.00 1.96 1.96 97 1014.5
20260506235537 12 195 0.0 0.0 0.00 1.96 1.96 97 1014.0
20260506235027 12 155 0.0 0.0 0.00 1.96 1.96 97 1014.1
20260506234525 12 150 0.0 0.0 0.00 1.96 1.96 97 1013.6
20260506234021 12 167 0.0 0.0 0.00 1.96 1.96 97 1013.7
20260506233518 13 167 0.0 0.0 0.00 1.96 1.96 96 1014.0
20260506233015 13 166 0.0 0.0 0.00 1.96 1.96 96 1014.1
20260506232511 13 167 0.0 0.0 0.00 1.96 1.96 96 1014.4
20260506232007 13 166 0.0 0.0 0.00 1.96 1.96 96 1014.4
20260506231504 13 170 0.0 0.0 0.00 1.96 1.96 96 1014.6
20260506231002 13 170 0.0 0.0 0.00 1.96 1.96 96 1014.2
20260506230458 13 170 0.0 0.0 0.00 1.96 1.96 96 1014.2
20260506225955 13 170 0.0 0.0 0.00 1.96 1.96 96 1014.4
20260506225452 13 170 0.0 0.0 0.00 1.96 1.96 96 1014.4
20260506224948 13 170 0.0 0.0 0.00 1.96 1.96 95 1014.4
20260506224446 13 170 0.0 0.0 0.00 1.96 1.96 95 1014.3
20260506223942 13 186 0.0 0.0 0.00 1.96 1.96 94 1014.3
20260506223438 13 186 0.0 0.0 0.00 1.96 1.96 93 1014.2
20260506222935 13 189 0.0 3.2 0.00 1.96 1.96 93 1014.5
20260506222432 13 202 0.0 1.6 0.00 1.96 1.96 93 1014.4
20260506221929 13 178 0.0 0.0 0.00 1.96 1.96 94 1014.1
20260506221426 13 186 0.0 1.6 0.00 1.96 1.96 94 1014.2
20260506220924 13 199 0.0 1.6 0.00 1.96 1.96 94 1014.3
20260506220419 13 171 0.0 0.0 0.00 1.96 1.96 94 1014.1
20260506215916 13 190 0.0 0.0 0.00 1.96 1.96 93 1014.0
20260506215412 13 166 0.0 1.6 0.00 1.96 1.96 94 1014.0
20260506214908 13 172 0.0 0.0 0.00 1.96 1.96 93 1013.9
20260506214405 13 215 1.6 1.6 0.00 1.96 1.96 93 1014.0
20260506213903 13 152 0.0 0.0 0.00 1.96 1.96 93 1014.0
20260506213400 13 195 0.0 0.0 0.00 1.96 1.96 93 1013.8
20260506212857 13 202 0.0 0.0 0.00 1.96 1.96 93 1013.9
20260506212353 13 171 0.0 1.6 0.00 1.96 1.96 92 1014.0
20260506211847 13 202 0.0 3.2 0.00 1.96 1.96 91 1014.0
20260506211344 13 135 0.0 0.0 0.00 1.96 1.96 91 1013.7
20260506210841 13 140 0.0 0.0 0.00 1.96 1.96 91 1013.6
20260506210338 13 150 0.0 0.0 0.00 1.96 1.96 94 1014.0
20260506205835 13 71 0.0 3.2 0.00 1.96 1.96 94 1013.9
20260506205331 13 84 0.0 1.6 0.00 1.96 1.96 94 1014.0
20260506204828 13 87 0.0 1.6 0.00 1.96 1.96 95 1013.8
20260506204326 13 97 0.0 0.0 0.00 1.96 1.96 94 1013.8
20260506203823 12 83 0.0 0.0 0.00 1.96 1.96 92 1013.9
20260506203320 12 48 0.0 0.0 0.00 1.96 1.96 92 1013.9
20260506202817 12 48 0.0 0.0 0.00 1.96 1.96 92 1013.8
20260506202314 12 43 0.0 0.0 0.00 1.96 1.96 91 1013.6
20260506201810 13 44 0.0 0.0 0.00 1.96 1.96 92 1013.7
20260506201308 12 44 0.0 0.0 0.00 1.96 1.96 92 1013.6
20260506200805 12 44 0.0 0.0 0.00 1.96 1.96 92 1013.8
20260506200255 12 47 0.0 1.6 0.00 1.96 1.96 93 1013.5
20260506195752 12 48 1.6 3.2 0.00 1.96 1.96 92 1013.6
20260506195248 12 3 1.6 3.2 0.00 1.96 1.96 92 1013.6
20260506194746 12 62 0.0 0.0 0.00 1.96 1.96 93 1013.5
20260506194242 12 56 0.0 0.0 0.00 1.96 1.96 93 1013.5
20260506193740 12 23 0.0 3.2 0.00 1.96 1.96 94 1013.6
20260506193237 12 117 0.0 0.0 0.00 1.96 1.96 94 1013.6
20260506192733 12 101 0.0 4.8 0.00 1.96 1.96 93 1013.4
20260506192230 12 57 0.0 1.6 0.00 1.96 1.96 93 1013.8
20260506191727 12 48 3.2 4.8 0.00 1.96 1.96 93 1013.6
20260506191223 12 59 0.0 3.2 0.00 1.96 1.96 93 1013.6
20260506190720 12 77 0.0 1.6 0.00 1.96 1.96 94 1013.5
20260506190217 12 341 0.0 1.6 0.00 1.96 1.96 93 1013.5
20260506185715 12 57 0.0 3.2 0.00 1.96 1.96 93 1013.4
20260506185210 12 349 1.6 4.8 0.00 1.96 1.96 94 1013.4
20260506184708 12 57 1.6 1.6 0.00 1.96 1.96 94 1013.4
20260506184205 12 57 3.2 3.2 0.00 1.96 1.96 94 1013.3
20260506183701 12 13 1.6 4.8 0.00 1.96 1.96 95 1013.4
20260506183157 12 64 0.0 3.2 0.00 1.96 1.96 96 1013.3
20260506182655 12 64 0.0 3.2 0.00 1.96 1.96 96 1013.4
20260506182151 12 30 4.8 9.7 0.00 1.96 1.96 96 1013.3
20260506181650 12 37 3.2 9.7 0.00 1.96 1.96 97 1013.5
20260506181146 12 41 3.2 4.8 0.00 1.96 1.96 97 1013.4
20260506180644 12 20 3.2 4.8 0.00 1.96 1.96 97 1013.4
20260506180140 12 353 3.2 4.8 0.00 1.96 1.96 97 1013.3
20260506175636 12 42 6.4 9.7 0.00 1.96 1.96 97 1013.2
20260506175133 11 43 4.8 6.4 0.00 1.96 1.96 98 1013.3
20260506174631 11 31 4.8 6.4 0.00 1.96 1.96 98 1013.2
20260506174127 12 30 4.8 6.4 0.00 1.96 1.96 98 1013.2
20260506173625 12 46 6.4 9.7 0.00 1.96 1.96 97 1013.2
20260506173121 12 10 1.6 4.8 0.00 1.96 1.96 97 1013.4
20260506172619 12 68 1.6 4.8 0.00 1.96 1.96 97 1013.2
20260506172115 12 49 0.0 3.2 0.00 1.96 1.96 97 1013.3
20260506171613 12 17 4.8 4.8 0.00 1.96 1.96 97 1013.1
20260506171110 12 43 4.8 6.4 0.00 1.96 1.96 98 1013.1
20260506170607 12 87 0.0 1.6 0.00 1.96 1.96 98 1012.9
20260506170105 12 62 4.8 11.3 0.00 1.96 1.96 98 1013.1
20260506165603 12 30 3.2 6.4 0.00 1.96 1.96 98 1013.0
20260506165059 12 95 1.6 3.2 0.00 1.96 1.96 98 1013.1
20260506164556 12 21 3.2 3.2 0.00 1.96 1.96 99 1013.0
20260506164053 12 48 1.6 6.4 0.18 1.96 1.96 99 1013.0
20260506163549 12 33 1.6 4.8 0.18 1.96 1.96 99 1012.8
20260506163045 12 33 4.8 6.4 0.00 1.93 1.93 99 1012.8
20260506162541 12 18 3.2 4.8 0.00 1.93 1.93 99 1013.1
20260506162039 12 339 0.0 1.6 0.00 1.93 1.93 99 1012.9
20260506161536 12 30 4.8 4.8 0.00 1.93 1.93 98 1012.9
20260506161033 12 30 4.8 4.8 0.00 1.93 1.93 98 1012.9
20260506160531 12 69 1.6 1.6 0.00 1.93 1.93 98 1013.0
20260506160028 12 62 1.6 4.8 0.00 1.93 1.93 98 1012.8
20260506155526 12 75 0.0 3.2 0.00 1.93 1.93 97 1012.7
20260506153657 12 109 3.2 9.7 0.00 1.93 1.93 98 1012.3
20260506153154 13 358 1.6 6.4 0.00 1.93 1.93 99 1012.0
20260506152651 13 57 9.7 17.7 0.00 1.93 1.93 99 1011.7
20260506152149 15 63 4.8 9.7 0.13 1.93 1.93 99 1011.5
20260506151648 15 100 0.0 0.0 0.00 1.91 1.91 99 1011.5
20260506151143 15 102 0.0 0.0 0.00 1.91 1.91 99 1011.4
20260506150641 15 130 0.0 0.0 0.00 1.91 1.91 99 1011.3
20260506150138 15 118 0.0 0.0 0.00 1.91 1.91 99 1011.1
20260506145635 15 139 0.0 0.0 0.00 1.91 1.91 99 1011.2
20260506145131 15 123 0.0 3.2 0.00 1.91 1.91 99 1011.0
20260506144629 15 93 0.0 1.6 0.00 1.91 1.91 99 1011.3
20260506144125 15 92 0.0 0.0 0.00 1.91 1.91 99 1011.1
20260506143623 15 171 0.0 0.0 0.18 1.91 1.91 99 1011.2
20260506143121 15 153 0.0 1.6 0.18 1.91 1.91 99 1011.1
20260506142619 15 186 0.0 1.6 0.00 1.88 1.88 99 1011.0
20260506142117 15 269 0.0 3.2 0.00 1.88 1.88 99 1011.1
20260506141614 15 74 0.0 3.2 0.00 1.88 1.88 99 1011.0
20260506141112 15 156 0.0 1.6 0.00 1.88 1.88 99 1010.7
20260506140609 15 144 0.0 0.0 0.00 1.88 1.88 99 1010.6
20260506140107 15 157 0.0 0.0 0.13 1.88 1.88 99 1010.7
20260506135603 15 152 0.0 1.6 0.13 1.88 1.88 99 1010.6
20260506135059 15 205 0.0 1.6 0.00 1.85 1.85 99 1010.5
20260506134556 15 143 0.0 3.2 0.00 1.85 1.85 99 1010.2
20260506134052 15 154 0.0 1.6 0.00 1.85 1.85 99 1009.9
20260506133549 15 208 0.0 0.0 0.00 1.85 1.85 99 1010.2
20260506133046 15 146 0.0 3.2 0.18 1.85 1.85 99 1010.0
20260506132544 15 103 0.0 0.0 0.18 1.85 1.85 99 1010.2
20260506132041 14 124 0.0 0.0 0.00 1.83 1.83 99 1010.1
20260506131538 14 155 0.0 0.0 0.00 1.83 1.83 99 1010.2
20260506131034 14 143 0.0 0.0 0.13 1.83 1.83 99 1010.0
20260506130531 14 215 0.0 0.0 0.13 1.83 1.83 99 1010.0
20260506130029 14 144 0.0 0.0 0.00 1.80 1.80 99 1010.3
20260506125527 14 121 0.0 0.0 0.18 1.80 1.80 99 1010.2
20260506125024 14 156 0.0 0.0 0.18 1.80 1.80 99 1010.1
20260506124522 14 194 0.0 0.0 0.00 1.78 1.78 99 1009.9
20260506124020 14 202 0.0 0.0 0.00 1.78 1.78 99 1010.0
20260506123517 14 192 0.0 0.0 0.00 1.78 1.78 99 1009.8
20260506123015 14 170 0.0 0.0 0.13 1.78 1.78 99 1009.7
20260506122512 14 173 0.0 0.0 0.13 1.78 1.78 99 1010.0
20260506122010 14 157 0.0 0.0 0.00 1.75 1.75 99 1009.8
20260506121507 14 169 0.0 0.0 0.18 1.75 1.75 99 1009.8
20260506121003 14 175 0.0 1.6 0.18 1.75 1.75 99 1009.8
20260506120501 14 154 0.0 0.0 0.00 1.73 1.73 99 1009.8
20260506115958 14 151 0.0 0.0 0.13 1.73 1.73 99 1009.6
20260506115456 14 142 0.0 0.0 0.30 1.73 1.73 99 1009.6
20260506114954 13 131 0.0 0.0 0.30 1.70 1.70 99 1009.8
20260506114451 13 121 0.0 0.0 0.18 1.65 1.65 99 1009.9
20260506113950 13 112 0.0 0.0 0.48 1.65 1.65 99 1010.1
20260506113447 13 113 0.0 0.0 0.48 1.63 1.63 99 1009.9
20260506112943 13 110 0.0 0.0 0.30 1.57 1.57 99 1009.8
20260506112441 13 115 0.0 0.0 0.13 1.55 1.55 99 1010.0
20260506111938 13 113 0.0 0.0 0.00 1.52 1.52 99 1009.8
20260506111436 13 105 0.0 1.6 0.18 1.52 1.52 99 1009.7
20260506110933 13 172 0.0 0.0 0.18 1.52 1.52 99 1009.7
20260506110431 13 172 0.0 0.0 0.00 1.50 1.50 99 1009.6
20260506105927 13 169 0.0 0.0 0.00 1.50 1.50 99 1009.4
20260506105423 13 153 0.0 0.0 0.00 1.50 1.50 99 1009.3
20260506104921 13 156 0.0 0.0 0.13 1.50 1.50 99 1009.3
20260506104419 13 157 0.0 0.0 0.13 1.50 1.50 99 1009.2
20260506103917 13 193 0.0 0.0 0.30 1.47 1.47 99 1009.2
20260506103414 13 130 0.0 0.0 0.30 1.45 1.45 99 1009.2
20260506102911 13 177 0.0 0.0 0.30 1.42 1.42 99 1009.0
20260506102409 13 274 0.0 0.0 0.43 1.40 1.40 99 1009.0
20260506101906 13 104 0.0 3.2 0.30 1.35 1.35 99 1008.9
20260506101402 13 97 0.0 0.0 0.36 1.32 1.32 99 1008.4
20260506100859 13 172 0.0 0.0 0.13 1.27 1.27 99 1008.7
20260506100358 13 172 0.0 0.0 0.18 1.24 1.24 99 1008.8
20260506095855 13 155 0.0 0.0 0.30 1.24 1.24 99 1008.6
20260506095353 13 151 0.0 0.0 0.43 1.22 1.22 99 1008.7
20260506094850 13 150 0.0 0.0 0.43 1.17 1.17 99 1008.6